Location: Penton Mewsey
(51.2167°N, 1.5167°W)
Time: 17:57:09
(UTC+00:00)

Envisat - Pass Details

Date: 05 March 2021
Orbit: 764 x 766 km, 98.1° (Epoch: 21 April)

Event Time Altitude Azimuth Distance (km) Brightness Sun altitude
Rises 18:23:08 0° 218° (SW) 3,225 6.9 -5.4°
Reaches altitude 10° 18:26:34 10° 243° (WSW) 2,305 6.7 -5.9°
Maximum altitude 18:29:14 14° 275° (W) 2,029 6.8 -6.3°
Drops below altitude 10° 18:31:55 10° 307° (NW) 2,314 6.4 -6.7°
Sets 18:35:24 0° 331° (NNW) 3,247 6.7 -7.3°
